Weather History for KMCO - January, 2012

Change the Weather History Date:

Saturday, January 7, 2012

  Actual Average Record
Temperature  
Mean Temperature 59 °F 60 °F  
Max Temperature 74 °F 71 °F 85 °F (1947)
Min Temperature 44 °F 49 °F 30 °F (2010)
Degree Days  
Heating Degree Days 6 7  
Month to date heating degree days 81 43  
Since 1 July heating degree days 164 234  
Cooling Degree Days 0 1  
Month to date cooling degree days 1 10  
Year to date cooling degree days 1 10  
Growing Degree Days 8 (Base 50)    
Moisture  
Dew Point 48 °F    
Average Humidity 71    
Maximum Humidity 100    
Minimum Humidity 41    
Precipitation  
Precipitation 0.00 in 0.08 in 1.76 in (1945)
Month to date precipitation T 0.53  
Year to date precipitation T 0.53  
Sea Level Pressure  
Sea Level Pressure 30.18 in    
Wind  
Wind Speed 1 mph (SSW)    
Max Wind Speed 8 mph    
Max Gust Speed 10 mph    
Visibility 9 miles    
Events Fog    
T = Trace of Precipitation, MM = Missing Value Source: NWS Daily Summary

Daily Weather History Graph

Daily Weather History Graph

Search for Another Location

Airport or City:

Trip Planner

Search our weather history database for the weather conditions in past years. The results will help you decide how hot, cold, wet, or windy it might be!

Date:

Astronomy

Jan. 07, 2012 Rise Set
Actual Time 7:18 AM EST 5:44 PM EST
Civil Twilight 6:53 AM EST 6:09 PM EST
Nautical Twilight 6:23 AM EST 6:39 PM EST
Astronomical Twilight 5:55 AM EST 7:07 PM EST
Moon 4:28 PM EST (1/7) 5:47 AM EST (1/7)
Length of Visible Light 11h 16m
Length of Day
10h 25m
Waxing Gibbous, 97% of the Moon is Illuminated
Jan 7
Waxing Gibbous
Jan 9
Full
Jan 16
Last Quarter
Jan 23
New
Jan 30
First Quarter

Hourly Weather History & Observations

Time (EST) Temp. Dew Point Humidity Pressure Visibility Wind Dir Wind Speed Gust Speed Precip Events Conditions
12:53 AM 50.0 °F 46.9 °F 89% 30.16 in 10.0 mi South 3.5 mph - N/A   Clear
1:53 AM 48.9 °F 46.9 °F 93% 30.16 in 10.0 mi Calm Calm - N/A   Clear
2:53 AM 48.9 °F 46.9 °F 93% 30.15 in 10.0 mi Calm Calm - N/A   Clear
3:53 AM 46.9 °F 45.0 °F 93% 30.15 in 10.0 mi Calm Calm - N/A   Clear
4:53 AM 46.9 °F 45.0 °F 93% 30.15 in 10.0 mi Calm Calm - N/A Fog Shallow Fog
5:53 AM 45.0 °F 44.1 °F 97% 30.17 in 8.0 mi Calm Calm - N/A   Partly Cloudy
6:53 AM 45.0 °F 44.1 °F 97% 30.19 in 3.0 mi Calm Calm - N/A   Scattered Clouds
7:53 AM 45.0 °F 44.1 °F 97% 30.19 in 3.0 mi Calm Calm - N/A   Mostly Cloudy
8:53 AM 53.1 °F 51.1 °F 93% 30.21 in 8.0 mi Calm Calm - N/A   Mostly Cloudy
9:53 AM 59.0 °F 54.0 °F 83% 30.23 in 9.0 mi Calm Calm - N/A   Overcast
10:53 AM 66.0 °F 54.0 °F 65% 30.22 in 10.0 mi Calm Calm - N/A   Mostly Cloudy
11:53 AM 68.0 °F 50.0 °F 52% 30.19 in 10.0 mi Calm Calm - N/A   Mostly Cloudy
12:53 PM 71.1 °F 48.9 °F 45% 30.17 in 10.0 mi WNW 5.8 mph - N/A   Overcast
1:53 PM 72.0 °F 48.0 °F 43% 30.14 in 10.0 mi Variable 4.6 mph - N/A   Partly Cloudy
2:53 PM 72.0 °F 46.9 °F 41% 30.14 in 10.0 mi West 4.6 mph - N/A   Partly Cloudy
3:53 PM 72.0 °F 46.9 °F 41% 30.14 in 10.0 mi SW 3.5 mph - N/A   Mostly Cloudy
4:53 PM 71.1 °F 48.0 °F 44% 30.14 in 10.0 mi Variable 3.5 mph - N/A   Scattered Clouds
5:53 PM 66.0 °F 48.9 °F 54% 30.16 in 10.0 mi SSE 3.5 mph - N/A   Scattered Clouds
6:53 PM 63.0 °F 50.0 °F 63% 30.17 in 10.0 mi Calm Calm - N/A   Partly Cloudy
7:53 PM 59.0 °F 48.9 °F 69% 30.18 in 10.0 mi Calm Calm - N/A   Clear
8:53 PM 57.0 °F 50.0 °F 77% 30.19 in 10.0 mi Calm Calm - N/A   Clear
9:53 PM 57.0 °F 50.0 °F 77% 30.20 in 10.0 mi SE 3.5 mph - N/A   Clear
10:53 PM 55.9 °F 50.0 °F 80% 30.21 in 10.0 mi Calm Calm - N/A   Clear
11:53 PM 53.1 °F 48.9 °F 86% 30.21 in 10.0 mi Calm Calm - N/A   Clear